Current Version              Previous Version:    01  02  03  04  05  06  07  08  09  10  11  12  13  14  15  16  17  18  19  20  21  22  23  24  25  26  27  28  29  30  
   31  32  33  34  35  36  37  38  39  40  41  42  43  44  45  46  47  48  49  50  51  52  53  54  55  56  57  58  59  60  

[Printable]
557
ASUS44 KEWX 200510
RWRTX
SOUTH TEXAS REGIONAL WEATHER ROUNDUP
NATIONAL WEATHER SERVICE AUSTIN/SAN ANTONIO TX
1200 AM CDT WED AUG 20 2014

NOTE: "FAIR" INDICATED FEW OR NO CLOUDS BELOW 12,000 FEET WITH NO
SIGNIFICANT WEATHER AND/OR OBSTRUCTIONS TO VISIBILITY.

* - THESE STATIONS ARE NOT NWS OR FAA STATIONS...AND ARE NOT SUBJECT
    TO NWS AND FAA QUALITY CONTROL.

TXZ171-172-183>190-200600-
TEXAS HILL COUNTRY AND EDWARDS PLATEAU

CITY           SKY/WX    TMP DP  RH WIND       PRES   REMARKS
JUNCTION       CLEAR     78  69  73 SE9       29.91S
*LLANO         PTCLDY    84  66  54 S13G18    29.94R
BURNET         PTCLDY    83  63  50 SE9G21    29.95R
*HORSESHOE BAY PTCLDY    84  61  46 S10G20    29.92S
*KERRVILLE     PTCLDY    79  70  74 SE7       29.95R
*FREDERICKSBRG PTCLDY    78  67  67 SE6       29.95R
*ROCKSPRINGS   CLEAR     79  70  73 SE13        N/A
*BOERNE STAGE  MOCLDY    79  61  53 SE9G18    29.96R
*CASTROVILLE   MOCLDY    83  66  57 SE10      29.92R
HONDO          PTCLDY    82  68  62 SE15G24   29.92R
*UVALDE        PTCLDY    85  73  66 SE12      29.88R HX  92
DEL RIO        PTCLDY    87  68  52 E13       29.82R HX  90
LAUGHLIN AFB   PTCLDY    82  69  64 SE8       29.84R
CARRIZO SPRGS  MOCLDY    90  63  40 SE16G26   29.84R HX  90
$$

TXZ173-191>194-202-209-217>225-228-200600-
CENTRAL AND SOUTH CENTRAL TEXAS

CITY           SKY/WX    TMP DP  RH WIND       PRES   REMARKS
GEORGETOWN     MOCLDY    84  70  61 S10G20    29.93R
AUSTIN/BERGSTM CLOUDY    83  70  64 S16       29.91R
AUSTIN/MABRY   MOCLDY    84  69  60 SE13G22   29.93R
*AUSTIN/EXEC     N/A     82  72  69 S10G17    29.94R
*LAGO VISTA    CLOUDY    83  68  60 SE12G25   29.95R
SAN MARCOS     CLOUDY    82  70  65 S15G22    29.94S
NEW BRAUNFELS  MOCLDY    82  71  69 S21G29    29.91R
RANDOLPH AFB   MOCLDY    81  69  67 SE14      29.93R
PT SAN ANTONIO MOCLDY    83  69  62 SE18G26   29.90R
SAN ANTONIO    CLOUDY    83  68  60 SE21G26   29.92R
STINSON FIELD  MOCLDY    82  70  66 SE15G24   29.90R
*PLEASANTON    MOCLDY    82  71  68 SE17G24   29.91R
*LA GRANGE     CLOUDY    83  75  75 S8        29.92S HX  90
*GIDDINGS      CLOUDY    82  71  69 S10G16    29.97S
*GONZALES      CLOUDY    82  75  80 SE13      29.92S
$$

TXZ163>164-176>182-195>201-210>213-226-227-235-200600-
SOUTHEAST TEXAS

CITY           SKY/WX    TMP DP  RH WIND       PRES   REMARKS
COLLEGE STN    CLOUDY    79  73  82 SE12      29.93S
*BRYAN         CLOUDY    76  73  88 SE7       29.93S
*CALDWELL      CLOUDY    79  72  78 SE6       29.96R
*CROCKETT        N/A    N/A N/A N/A MISG        N/A
*BRENHAM       CLOUDY    81  74  78 SE6       29.94F
HUNTSVILLE     CLOUDY    77  72  84 S8        29.94F
CONROE         CLOUDY    73  72  96 CALM      29.95F
HOUSTON BUSH   MOCLDY    77  75  93 SE3       29.94S
HOUSTON HOBBY  MOCLDY    80  75  84 S5        29.94S
*HOUSTON SW AP MOCLDY    76  75  96 MISG      29.95S
PEARLAND       MOCLDY    81  75  82 S5        29.95S
HOUSTON HOOKS  MOCLDY    75  75 100 CALM      29.94S
ELLINGTON FLD  MOCLDY    82  77  83 CALM      29.95S HX  91
SUGAR LAND     NOT AVBL
*HOUSTON EXEC  MOCLDY    77  75  94 SE7       29.95F
*CLEVELAND MUN MOCLDY    72  71  98 CALM      29.96R
*WHARTON       CLEAR     78  75  89 SE5       29.95F
$$

TXZ214>216-236>238-200600-
THE UPPER TEXAS COAST

CITY           SKY/WX    TMP DP  RH WIND       PRES   REMARKS
*ORANGE        CLOUDY    73  73 100 CALM      29.97S
PORT ARTHUR    CLOUDY    77  73  87 SE7       29.94S
GALVESTON      CLOUDY    85  76  74 SE14      29.96S HX  94
ANGLETON       MOCLDY    82  76  81 SE9       29.94S
*BAY CITY      CLEAR     80  80 100 SE5       29.94S HX  91
PALACIOS       CLEAR     84  76  76 SE14      29.93F HX  93
$$

TXZ229>234-239>247-200600-
TEXAS COASTAL BEND AND RIO GRANDE PLAINS

CITY           SKY/WX    TMP DP  RH WIND       PRES   REMARKS
VICTORIA       CLEAR     81  76  84 SE8       29.94S
*BEEVILLE      CLEAR     80  75  82 SE9       29.92S
ROCKPORT       CLEAR     84  77  79 SE14      29.92S HX  94
*PORT ARANSAS  CLEAR     82  78  87 SE6       29.91S HX  92
*PORT LAVACA   CLEAR     79  75  87 SE6       29.93S
*INGLESIDE     CLEAR     84  77  79 SE9       29.91S HX  93
CORPUS CHRISTI PTCLDY    82  77  84 SE12      29.91S HX  90
CORPUS NAS     PTCLDY    84  80  88 SE12      29.91S HX  97
*ROBSTOWN      NOT AVBL
ALICE          CLEAR     81  77  88 SE12      29.90S
KINGSVILLE NAS PTCLDY    83  79  88 SE12      29.90S HX  94
COTULLA        MOCLDY    85  69  58 SE17G29   29.87R
*FAITH RANCH   MOCLDY    90  64  43 SE16G24   29.85R HX  91
LAREDO         MOCLDY    87  66  49 SE18      29.88R
$$

TXZ248>255-200600-
DEEP SOUTH TEXAS

CITY           SKY/WX    TMP DP  RH WIND       PRES   REMARKS
BROWNSVILLE    CLEAR     81  77  88 SE6       29.91S
PORT ISABEL    CLEAR     83  76  79 SE8       29.91R HX  91
*SOUTH PADRE     N/A     79  77  94 SE3       29.91S
HARLINGEN      CLEAR     81  76  84 SE9       29.90S
*HEBBRONVILLE  CLEAR     83  65  55 E10       29.91R
MCALLEN        CLEAR     83  76  79 SE13      29.89S HX  91
*WESLACO       CLEAR     83  74  75 SE13      29.89S
FALFURRIAS     CLEAR     87  68  53 SE10G17   29.89S HX  91
EDINBURG       CLEAR     83  74  72 SE9       29.89S HX  90
*ZAPATA        CLOUDY    85  67  55 SE13      29.86R
$$

TXZ213>215-236>238-242>244-246-247-251-254-255-200600-
CMAN STATIONS

STATION/POSITION TIME  TEMP    WIND        PRES    WAVE
                       AIR SEA DIR/SP/G            HT/PER
                 (UTC) (F)     (DEG/KT/KT) (MB)    (FT/S)
SABINE PASS      0500   84 87  160/ 10/ 12 1014.4
SEA RIM ST PARK  0500   83     140/  9/ 13 1014.8
NORTH JETTY/GLS  0500   85 87  170/ 12/ 15   N/A
EAGLE POINT      0500   85 86  180/ 12/ 14 1014.0
MORGANS POINT    0500   84     140/  5/  8 1013.7
MISSION/ARANSAS  0400   84     130/ 13     1014.0
PORT O`CONNOR    0500          130/ 15/ 18   N/A
PORT ARANSAS     0500   83 85  120/  9/ 10 1013.6
MALAQUITE BEACH  0500   81 81  130/  8/  9 1012.3
BAFFIN BAY       0500   82 83  130/ 11/ 14 1012.7
PORT ISABEL      0500   82 81  130/  5/  8 1013.2
$$

GMZ080-GMZ150>470-200600-
OFFSHORE BUOY REPORTS

STATION/POSITION TIME  TEMP    WIND        PRES    WAVE
                       AIR SEA DIR/SP/G            HT/PER
                 (UTC) (F)     (DEG/KT/KT) (MB)    (FT/S)
90 E PT ARANSAS  0500   85 85  130/ 14/ 16 1014.1    3/ 6
35 NE PT MANSFLD 0500   85 86  150/ 14/ 17 1012.5    3/ 5
200 E PT ISABEL  0500   85 86  130/ 12/ 14 1014.0    3/ 5
$$